M.P.E.C. 2017-M46 Issued 2017 June 23, 15:51 UT The Minor Planet Electronic Circulars contain information on unusual minor planets and routine data on comets. They are published on behalf of Division F of the International Astronomical Union by the Minor Planet Center, Smithsonian Astrophysical Observatory, Cambridge, MA 02138, U.S.A. Prepared using the Tamkin Foundation Computer Network MPC@CFA.HARVARD.EDU URL https://www.minorplanetcenter.net/ ISSN 1523-6714 2017 MZ Observations: K17M00Z* C2017 06 19.34935 18 23 31.11 +46 06 24.4 qEM046G96 K17M00Z C2017 06 19.36978 18 23 25.57 +46 00 19.8 qEM046G96 K17M00Z C2017 06 19.37406 18 23 24.38 +45 59 01.9 qEM046G96 K17M00Z C2017 06 19.37834 18 23 23.25 +45 57 46.2 19.4 VqEM046G96 K17M00Z C2017 06 19.42011 18 23 12.26 +45 45 20.2 19.8 VqEM046G96 K17M00Z C2017 06 19.42051 18 23 12.13 +45 45 12.7 20.0 VqEM046G96 K17M00Z C2017 06 19.42092 18 23 12.02 +45 45 05.8 19.7 VqEM046G96 K17M00Z C2017 06 19.42132 18 23 11.90 +45 44 58.6 20.3 VqEM046G96 K17M00Z C2017 06 19.43823 18 23 14.131+45 40 30.83 19.4 wLEM046F51 K17M00Z C2017 06 19.44023 18 23 07.08 +45 39 20.4 19.4 VqEM046I52 K17M00Z C2017 06 19.44065 18 23 06.97 +45 39 13.9 19.6 VqEM046I52 K17M00Z C2017 06 19.44130 18 23 06.78 +45 39 00.9 19.3 VqEM046I52 K17M00Z C2017 06 19.44380 18 23 06.16 +45 38 16.5 19.3 VqEM046I52 K17M00Z C2017 06 19.44451 18 23 05.90 +45 38 03.5 19.3 VqEM046G96 K17M00Z C2017 06 19.44493 18 23 05.83 +45 37 56.5 19.9 VqEM046G96 K17M00Z C2017 06 19.44533 18 23 05.75 +45 37 48.8 20.6 VqEM046G96 K17M00Z C2017 06 19.44574 18 23 05.64 +45 37 42.0 19.6 VqEM046G96 K17M00Z C2017 06 19.45127 18 23 10.564+45 36 42.10 19.3 wLEM046F51 K17M00Z C2017 06 19.47703 18 23 03.544+45 29 07.52 LEM046F51 K17M00Z KC2017 06 19.88298 18 21 48.09 +43 32 10.7 SEM046595 K17M00Z KC2017 06 19.88352 18 21 48.00 +43 31 53.7 19.3 RqEM046A17 K17M00Z KC2017 06 19.89075 18 21 46.46 +43 29 53.3 19.3 RqEM046A17 K17M00Z KC2017 06 19.90132 18 21 44.11 +43 26 59.1 19.3 RqEM046A17 K17M00Z KC2017 06 19.92563 18 21 38.47 +43 20 24.3 19.4 VSEM046595 K17M00Z KC2017 06 19.93304 18 21 36.95 +43 18 24.6 19.4 RqEM046K65 K17M00Z KC2017 06 19.93357 18 21 35.93 +43 18 11.3 18.8 RoEM046K88 K17M00Z KC2017 06 19.93656 18 21 35.18 +43 17 22.0 18.8 RoEM046K88 K17M00Z KC2017 06 19.93956 18 21 34.52 +43 16 31.9 18.9 RoEM046K88 K17M00Z KC2017 06 19.94487 18 21 34.28 +43 15 09.0 19.4 RqEM046K65 K17M00Z KC2017 06 19.95081 18 21 32.94 +43 13 30.3 19.6 RqEM046K65 K17M00Z KC2017 06 20.16055 18 20 57.75 +42 16 07.5 20.0 VqEM046W25 K17M00Z KC2017 06 20.17132 18 20 55.47 +42 13 15.0 21.1 VqEM046W25 K17M00Z KC2017 06 20.21059 18 20 48.33 +42 02 41.7 19.2 RqEM046734 K17M00Z KC2017 06 20.21448 18 20 47.57 +42 01 39.2 19.2 RqEM046734 K17M00Z KC2017 06 20.21816 18 20 46.74 +42 00 40.5 19.6 RqEM046734 K17M00Z KC2017 06 20.27403018 20 33.70 +41 45 47.8 19.9 VuEM046H21 K17M00Z KC2017 06 20.27833718 20 32.77 +41 44 38.7 19.6 VuEM046H21 K17M00Z KC2017 06 20.28264318 20 31.86 +41 43 29.8 19.7 VuEM046H21 K17M00Z KC2017 06 20.28695118 20 30.95 +41 42 20.7 19.7 VuEM046H21 K17M00Z KC2017 06 20.29039518 20 30.21 +41 41 25.3 19.6 VuEM046H21 K17M00Z KC2017 06 20.85908 18 19 04.98 +39 14 41.0 19.8 V EM046L04 K17M00Z KC2017 06 20.86348 18 19 04.21 +39 13 36.1 19.7 V EM046L04 K17M00Z KC2017 06 20.88576 18 19 01.51 +39 08 07.0 19.4 RqEM046160 K17M00Z KC2017 06 20.88689 18 19 00.01 +39 07 49.2 19.8 V EM046L04 K17M00Z KC2017 06 20.89124 18 19 00.55 +39 06 45.5 qEM046160 K17M00Z KC2017 06 20.89399 18 19 00.07 +39 06 05.5 19.7 RqEM046160 K17M00Z KC2017 06 20.89675 18 18 59.58 +39 05 25.4 qEM046160 K17M00Z KC2017 06 20.89953 18 18 59.05 +39 04 44.2 19.5 RqEM046160 K17M00Z KC2017 06 20.90225 18 18 58.62 +39 04 04.3 qEM046160 K17M00Z KC2017 06 20.93766 18 18 52.17 +38 55 22.6 19.5 UEM046104 K17M00Z KC2017 06 20.94057 18 18 51.67 +38 54 39.6 19.3 UEM046104 K17M00Z KC2017 06 20.94803 18 18 50.30 +38 52 50.0 19.4 UEM046104 K17M00Z KC2017 06 20.98008 18 18 43.59 +38 44 52.2 19.0 RoEM046K88 K17M00Z KC2017 06 20.98337 18 18 44.10 +38 44 07.6 19.3 RqEM046203 K17M00Z KC2017 06 20.98340 18 18 43.00 +38 44 03.6 18.5 RoEM046K88 K17M00Z KC2017 06 20.98672 18 18 42.40 +38 43 14.4 19.0 RoEM046K88 K17M00Z KC2017 06 20.99825 18 18 41.41 +38 40 29.2 19.3 RqEM046203 K17M00Z KC2017 06 21.15335 18 18 23.69 +38 02 54.9 19.1 VqEM046W25 K17M00Z KC2017 06 21.16613 18 18 21.46 +37 59 53.1 19.0 VqEM046W25 K17M00Z C2017 06 21.17467 18 18 22.68 +37 57 47.6 19.7 VqEM046I52 K17M00Z C2017 06 21.17607 18 18 22.45 +37 57 28.2 19.3 VqEM046I52 K17M00Z C2017 06 21.17748 18 18 22.23 +37 57 08.0 20.1 VqEM046I52 K17M00Z C2017 06 21.17883 18 18 22.01 +37 56 49.0 19.7 VqEM046I52 K17M00Z KC2017 06 21.21343 18 18 14.44 +37 48 37.7 19.5 RqEM046H36 K17M00Z KC2017 06 21.22064 18 18 13.21 +37 46 54.6 19.4 RqEM046H36 K17M00Z KC2017 06 21.22545 18 18 12.33 +37 45 46.6 20.1 RqEM046H36 K17M00Z KC2017 06 21.87205 18 16 52.59 +35 17 17.7 19.9 VqEM046C77 K17M00Z KC2017 06 21.87961 18 16 51.54 +35 15 40.0 19.7 VqEM046C77 K17M00Z KC2017 06 21.91813 18 16 46.57 +35 07 13.7 19.3 VqEM046I93 K17M00Z KC2017 06 21.92676 18 16 45.32 +35 05 21.9 19.4 VqEM046I93 K17M00Z KC2017 06 21.92731 18 16 45.30 +35 05 19.1 19.5 RqEM046B74 K17M00Z KC2017 06 21.93272 18 16 44.46 +35 04 09.2 19.4 RqEM046B74 K17M00Z KC2017 06 21.93842 18 16 43.64 +35 02 54.8 19.5 RqEM046B74 K17M00Z KC2017 06 21.93918 18 16 43.52 +35 02 39.2 19.6 VqEM046I93 K17M00Z KC2017 06 21.99831 18 16 33.97 +34 49 48.8 UEM046204 K17M00Z KC2017 06 22.01269 18 16 31.85 +34 46 41.2 UEM046204 K17M00Z KC2017 06 22.02581 18 16 29.92 +34 43 50.2 19.4 GUEM046204 K17M00Z 1C2017 06 22.30023 18 16 02.47 +33 45 21.1 EM046658 K17M00Z 1C2017 06 22.30149 18 16 02.31 +33 45 05.2 EM046658 K17M00Z 1C2017 06 22.30275 18 16 02.13 +33 44 49.6 EM046658 K17M00Z C2017 06 22.33776 18 15 56.18 +33 37 56.7 19.5 VqEM046I52 K17M00Z C2017 06 22.33817 18 15 56.14 +33 37 52.0 19.5 VqEM046I52 K17M00Z C2017 06 22.33859 18 15 56.08 +33 37 47.0 19.1 VqEM046I52 K17M00Z C2017 06 22.34610 18 15 54.95 +33 36 12.1 19.3 VqEM046I52 K17M00Z C2017 06 22.34734 18 15 54.84 +33 35 56.5 19.6 VqEM046I52 K17M00Z C2017 06 22.50733 18 15 36.606+33 03 12.30 19.9 wLEM046F51 K17M00Z C2017 06 22.52095 18 15 34.700+33 00 24.03 20.1 wLEM046F51 K17M00Z C2017 06 22.53461 18 15 32.811+32 57 35.06 19.7 wLEM046F51 K17M00Z KC2017 06 22.97114 18 14 53.08 +31 30 24.3 19.1 RoEM046K88 K17M00Z KC2017 06 22.97403 18 14 52.73 +31 29 50.9 18.9 RoEM046K88 K17M00Z KC2017 06 22.97691 18 14 52.38 +31 29 17.4 18.8 RoEM046K88 K17M00Z C2017 06 23.23830 18 14 31.69 +30 39 52.9 19.7 VqEM046I52 K17M00Z C2017 06 23.24180 18 14 31.28 +30 39 14.0 19.5 VqEM046I52 K17M00Z C2017 06 23.24344 18 14 31.08 +30 38 56.2 19.9 VqEM046I52 K17M00Z C2017 06 23.24385 18 14 31.03 +30 38 51.0 19.7 VqEM046I52 K17M00Z 1C2017 06 23.36582 18 14 17.38 +30 15 51.5 EM046658 K17M00Z 1C2017 06 23.36731 18 14 17.22 +30 15 35.2 EM046658 K17M00Z 1C2017 06 23.36880 18 14 17.07 +30 15 18.6 EM046658 Observer details: 104 San Marcello Pistoiese. Observers P. Bacci, M. Maestripieri. Measurers P. Bacci, L. Tesi, G. Fagioli. 0.60-m f/4 reflector + CCD. 160 Castelmartini. Observers M. Jaeger, E. Prosperi, S. Prosperi, W. Vollmann. Measurer E. Prosperi. 0.35-m f/10 Schmidt-Cassegrain + CCD. 203 GiaGa Observatory. Observers S. Foglia, G. Galli. Measurer G. Galli. 0.28-m f/6.8 Schmidt-Cassegrain + CCD. 204 Schiaparelli Observatory. Observer L. Buzzi. 0.36-m f/7.1 reflector + CCD. 595 Farra d'Isonzo. Observers U. Montanar, E. Pettarin. Measurer E. Pettarin. 0.61-m f/4.0 reflector + CCD. 658 National Research Council of Canada. Observer D. D. Balam. 1.82-m Plaskett telescope + CCD. 734 Farpoint Observatory. Observer G. Hug. 0.69-m reflector + CCD. A17 Guidestar Observatory, Weinheim. Observers M. Emmerich, S. Melchert. 0.36-m f/6 Schmidt-Cassegrain + CCD. B74 Santa Maria de Montmagastrell. Observer J. M. Bosch. 0.40-m f/10 Schmidt-Cassegrain + CCD. C77 Bernezzo Observatory. Observer A. Mantero. 0.25-m f/4.0 reflector + CCD. F51 Pan-STARRS 1, Haleakala. Observers J. Bulger, T. Goggia, T. Lowe, A. Schultz, M. Willman. Measurers K. Chambers, S. Chastel, L. Denneau, H. Flewelling, M. Huber, E. Lilly, E. Magnier, R. Wainscoat, C. Waters, R. Weryk. 1.8-m Ritchey-Chretien + CCD. G96 Mt. Lemmon Survey. Observer A. D. Grauer. Measurers E. J. Christensen, D. C. Fuls, A. R. Gibbs, A. D. Grauer, J. A. Johnson, R. A. Kowalski, S. M. Larson, G. J. Leonard, R. G. Matheny, R. L. Seaman, F. C. Shelly. 1.5-m reflector + 10K CCD. H21 Astronomical Research Observatory, Westfield. Observer R. Holmes. Measurers S. Foglia, L. Buzzi, T. Linder, R. Holmes. 0.61-m f/4.5 astrograph + CCD. H36 Sandlot Observatory, Scranton. Observer G. Hug. 0.56-m reflector + CCD. I52 Steward Observatory, Mt. Lemmon Station. Observers G. J. Leonard, E. J. Christensen. Measurers E. J. Christensen, D. C. Fuls, A. R. Gibbs, A. D. Grauer, J. A. Johnson, R. A. Kowalski, S. M. Larson, G. J. Leonard, R. G. Matheny, R. L. Seaman, F. C. Shelly. 1.0-m reflector + CCD. I93 St Pardon de Conques. Observer F. Losse. 0.40-m f/3.7 reflector + CCD. K65 Cesena. Observers V. Tinella, N. A. R. O. Nicolini Astronomical Robotic Observatory. Measurer V. Tinella. 0.40-m f/7 Schmidt-Cassegrain + CCD. K88 GINOP-KHK, Piszkesteto. Observers A. Ordasi, K. Sarneczky. Measurer K. Sarneczky. 0.60-m Schmidt + CCD. L04 ROASTERR-1 Observatory, Cluj-Napoca. Observer L. Hudin. 0.3-m f/5.0 reflector + CCD. W25 RMS Observatory, Cincinnati. Observer B. Rowe. 0.35-m Schmidt-Cassegrain + CCD. Orbital elements: 2017 MZ Earth MOID = 0.0667 AU Epoch 2017 Sept. 4.0 TT = JDT 2458000.5 MPC M 71.07044 (2000.0) P Q n 0.53464328 Peri. 316.55314 -0.99516464 +0.05751663 a 1.5034649 Node 226.92549 -0.02842109 -0.94455873 e 0.5220873 Incl. 6.25753 -0.09401905 -0.32326559 P 1.84 H 22.6 G 0.15 U 7 Residuals in seconds of arc 170619 G96 0.4- 0.4- 170620 734 0.7+ 0.8- 170621 C77 0.4- 0.4- 170619 G96 0.2- 0.1- 170620 734 0.2+ 0.7- 170621 C77 0.0 0.6+ 170619 G96 (0.5- 1.5-) 170620 H21 0.1- 0.1+ 170621 I93 0.2+ 0.3- 170619 G96 0.3- 0.7- 170620 H21 0.2- 0.1+ 170621 I93 0.2+ 0.2+ 170619 G96 0.5+ 0.1+ 170620 H21 0.1- 0.2+ 170621 B74 0.7+ 0.2- 170619 G96 0.2+ 0.3- 170620 H21 0.0 0.1+ 170621 B74 0.2+ 0.3+ 170619 G96 0.2+ 0.2+ 170620 H21 0.1- 0.0 170621 B74 0.4+ 0.1+ 170619 G96 0.0 0.1+ 170620 L04 0.2- 0.0 170621 I93 0.3+ 0.9- 170619 F51 0.0 0.1+ 170620 L04 0.0 0.1+ 170621 204 0.2+ 0.1- 170619 I52 0.4+ 0.1+ 170620 160 0.2- 0.3+ 170622 204 0.0 0.2- 170619 I52 0.4+ 1.1+ 170620 L04 0.0 0.8- 170622 204 0.2- 0.2- 170619 I52 0.1+ 0.2- 170620 160 0.0 0.6- 170622 658 0.5- 0.1+ 170619 I52 0.3+ 0.1+ 170620 160 0.2+ 0.1- 170622 658 0.4- 0.1- 170619 G96 0.6- 0.2- 170620 160 0.2+ 0.4+ 170622 658 0.5- 0.1+ 170619 G96 0.2- 0.3+ 170620 160 0.2- 0.1+ 170622 I52 0.1+ 0.4- 170619 G96 0.0 0.2- 170620 160 0.5+ 0.2+ 170622 I52 0.4+ 0.0 170619 G96 0.0 0.3+ 170620 104 0.2- 0.2- 170622 I52 0.4+ 0.3+ 170619 F51 0.1- 0.7+ 170620 104 0.1+ 0.4- 170622 I52 0.2- 0.5- 170619 F51 0.3- 0.5- 170620 104 0.1- 0.3- 170622 I52 0.6+ 0.5- 170619 595 0.8+ 0.1- 170620 K88 0.1+ 0.1+ 170622 F51 0.0 0.1- 170619 A17 0.5- 0.3+ 170620 203 0.2+ 0.4- 170622 F51 0.1+ 0.1+ 170619 A17 0.1- 0.4- 170620 K88 0.1+ 0.5+ 170622 F51 0.1+ 0.1+ 170619 A17 0.3- 0.3+ 170620 K88 0.1- 0.3+ 170622 K88 0.0 0.1+ 170619 595 0.4+ 0.2- 170620 203 0.0 0.0 170622 K88 0.0 0.2+ 170619 K65 0.2- 0.0 170621 W25 0.4+ 0.3- 170622 K88 0.1+ 0.2+ 170619 K88 0.6+ 0.5+ 170621 W25 0.0 0.0 170623 I52 0.4- 0.2- 170619 K88 0.2- 0.8+ 170621 I52 0.0 0.2+ 170623 I52 0.2- 0.1- 170619 K88 0.0 0.5+ 170621 I52 0.0 0.5+ 170623 I52 0.2- 0.3+ 170619 K65 0.1- 0.2+ 170621 I52 0.1+ 0.2+ 170623 I52 0.2- 0.3- 170619 K65 0.1+ 0.2- 170621 I52 0.2+ 0.3+ 170623 658 0.7- 0.1+ 170620 W25 0.1+ 0.3- 170621 H36 0.2- 0.8+ 170623 658 0.5- 0.3+ 170620 W25 0.4+ 0.2- 170621 H36 0.0 0.0 170623 658 0.3- 0.2+ 170620 734 0.1- 0.4- 170621 H36 0.6- 0.3+ Ephemeris: 2017 MZ a,e,i = 1.50, 0.52, 6 q = 0.7185 Date TT R. A. (2000) Decl. Delta r Elong. Phase V 2017 05 24 05 46 17.6 +28 05 19 0.1990 0.8359 24.6 149.7 27.1 ... 2017 06 08 05 25 34.9 +61 19 01 0.08368 0.9511 38.7 138.2 23.7 ... 2017 06 16 18 47 26.8 +65 42 25 0.06911 1.0181 90.0 86.2 19.9 ... 2017 06 22 18 16 34.2 +34 49 55 0.09535 1.0694 121.6 54.0 19.6 2017 06 23 18 14 51.0 +31 25 24 0.1016 1.0780 125.1 50.5 19.7 2017 06 24 18 13 25.7 +28 23 41 0.1081 1.0866 128.2 47.3 19.7 ... 2017 06 30 18 08 26.7 +15 47 12 0.1521 1.1381 140.5 34.7 20.2 ... 2017 07 08 18 06 15.0 +06 44 34 0.2189 1.2062 147.0 27.3 20.9 ... 2017 07 23 18 08 27.3 -01 55 03 0.3626 1.3303 145.4 25.7 22.2 A. U. Tomatic (C) Copyright 2017 MPC M.P.E.C. 2017-M46
